| time (UTC) | temp F | wind direction | speed MPH | gust MPH | rain 1hr in | rain 24hr in | rain mn in | humidity % | barometer mb |
| 20260904224556 | 75 | 92 | 0.0 | 0.0 | 0.08 | 0.65 | 0.65 | 95 | 1014.5 |
| 20260904223027 | 75 | 92 | 0.0 | 0.0 | 0.06 | 0.62 | 0.62 | 95 | 1014.3 |
| 20260904221605 | 75 | 92 | 0.0 | 3.0 | 0.09 | 0.60 | 0.60 | 95 | 1014.1 |
| 20260904220022 | 75 | 41 | 0.0 | 2.0 | 0.35 | 0.57 | 0.57 | 94 | 1013.9 |
| 20260904214558 | 75 | 265 | 0.0 | 3.0 | 0.56 | 0.56 | 0.56 | 94 | 1013.8 |
| 20260904213027 | 76 | 272 | 0.0 | 2.0 | 0.55 | 0.56 | 0.56 | 93 | 1014.2 |
| 20260904211557 | 76 | 262 | 1.0 | 3.0 | 0.48 | 0.49 | 0.49 | 93 | 1014.3 |
| 20260904210023 | 78 | 138 | 0.0 | 8.0 | 0.19 | 0.20 | 0.20 | 89 | 1014.8 |
| 20260904204604 | 80 | 142 | 1.0 | 4.0 | 0.00 | 0.01 | 0.01 | 87 | 1014.8 |
| 20260904203035 | 81 | 74 | 0.0 | 4.0 | 0.00 | 0.01 | 0.01 | 87 | 1014.0 |
| 20260904201637 | 82 | 60 | 2.0 | 6.0 | 0.01 | 0.01 | 0.01 | 86 | 1013.7 |
| 20260904200043 | 83 | 76 | 2.0 | 8.0 | 0.01 | 0.01 | 0.01 | 86 | 1012.7 |
| 20260904194601 | 82 | 40 | 3.0 | 5.0 | 0.01 | 0.01 | 0.01 | 89 | 1013.5 |
| 20260904193027 | 80 | 44 | 2.0 | 7.0 | 0.01 | 0.01 | 0.01 | 92 | 1013.7 |
| 20260904191601 | 81 | 32 | 3.0 | 8.0 | 0.00 | 0.00 | 0.00 | 87 | 1013.7 |
| 20260904190033 | 85 | 30 | 2.0 | 5.0 | 0.00 | 0.00 | 0.00 | 80 | 1013.8 |
| 20260904184504 | 87 | 44 | 1.0 | 4.0 | 0.00 | 0.01 | 0.00 | 76 | 1013.6 |
| 20260904183101 | 89 | 35 | 3.0 | 5.0 | 0.00 | 0.01 | 0.00 | 72 | 1013.7 |
| 20260904181508 | 89 | 126 | 0.0 | 6.0 | 0.00 | 0.01 | 0.00 | 69 | 1014.1 |
| 20260904180041 | 89 | 123 | 2.0 | 7.0 | 0.00 | 0.01 | 0.00 | 71 | 1013.9 |
| 20260904174505 | 89 | 200 | 3.0 | 9.0 | 0.00 | 0.01 | 0.00 | 69 | 1014.0 |
| 20260904173036 | 90 | 103 | 4.0 | 7.0 | 0.00 | 0.01 | 0.00 | 67 | 1014.2 |
| 20260904171507 | 89 | 164 | 2.0 | 6.0 | 0.00 | 0.01 | 0.00 | 69 | 1014.4 |
| 20260904170044 | 88 | 244 | 3.0 | 8.0 | 0.00 | 0.01 | 0.00 | 75 | 1014.6 |
| 20260904164506 | 88 | 158 | 1.0 | 10.0 | 0.00 | 0.01 | 0.00 | 73 | 1014.9 |
| 20260904163033 | 87 | 111 | 1.0 | 5.0 | 0.00 | 0.01 | 0.00 | 75 | 1015.2 |
| 20260904161609 | 86 | 215 | 3.0 | 6.0 | 0.00 | 0.01 | 0.00 | 77 | 1015.3 |
| 20260904160042 | 86 | 121 | 0.0 | 4.0 | 0.00 | 0.01 | 0.00 | 80 | 1015.4 |
| 20260904154507 | 86 | 105 | 2.0 | 7.0 | 0.00 | 0.01 | 0.00 | 77 | 1015.6 |
| 20260904153057 | 85 | 137 | 1.0 | 6.0 | 0.00 | 0.01 | 0.00 | 80 | 1015.5 |
| 20260904151604 | 85 | 192 | 3.0 | 6.0 | 0.00 | 0.01 | 0.00 | 80 | 1015.5 |
| 20260904150039 | 85 | 196 | 1.0 | 4.0 | 0.00 | 0.01 | 0.00 | 80 | 1015.4 |
| 20260904144606 | 84 | 67 | 1.0 | 7.0 | 0.00 | 0.02 | 0.00 | 82 | 1015.2 |
| 20260904143033 | 84 | 141 | 1.0 | 6.0 | 0.00 | 0.02 | 0.00 | 83 | 1015.2 |
| 20260904141606 | 83 | 114 | 1.0 | 4.0 | 0.00 | 0.02 | 0.00 | 85 | 1015.2 |
| 20260904140031 | 81 | 132 | 0.0 | 2.0 | 0.00 | 0.02 | 0.00 | 89 | 1015.2 |
| 20260904134609 | 82 | 94 | 0.0 | 6.0 | 0.00 | 0.02 | 0.00 | 89 | 1015.1 |
| 20260904133029 | 80 | 127 | 1.0 | 4.0 | 0.00 | 0.02 | 0.00 | 91 | 1015.2 |
| 20260904131618 | 80 | 115 | 1.0 | 4.0 | 0.00 | 0.02 | 0.00 | 93 | 1015.2 |
| 20260904130027 | 79 | 123 | 0.0 | 3.0 | 0.00 | 0.02 | 0.00 | 93 | 1015.3 |
| 20260904124558 | 78 | 101 | 0.0 | 3.0 | 0.00 | 0.02 | 0.00 | 95 | 1015.2 |
| 20260904123012 | 78 | 103 | 0.0 | 0.0 | 0.00 | 0.02 | 0.00 | 96 | 1015.0 |
| 20260904121541 | 77 | 79 | 0.0 | 0.0 | 0.00 | 0.02 | 0.00 | 96 | 1014.9 |
| 20260904120005 | 76 | 78 | 0.0 | 0.0 | 0.00 | 0.02 | 0.00 | 96 | 1014.8 |
| 20260904114544 | 76 | 78 | 0.0 | 0.0 | 0.00 | 0.02 | 0.00 | 96 | 1014.8 |
| 20260904113030 | 75 | 78 | 0.0 | 0.0 | 0.00 | 0.02 | 0.00 | 96 | 1014.7 |
| 20260904111545 | 74 | 78 | 0.0 | 0.0 | 0.00 | 0.02 | 0.00 | 96 | 1014.5 |
| 20260904110014 | 75 | 78 | 0.0 | 0.0 | 0.00 | 0.02 | 0.00 | 96 | 1014.4 |
| 20260904104549 | 75 | 78 | 0.0 | 0.0 | 0.00 | 0.02 | 0.00 | 96 | 1014.4 |
| 20260904103014 | 75 | 78 | 0.0 | 0.0 | 0.00 | 0.02 | 0.00 | 96 | 1014.5 |
| 20260904101550 | 75 | 78 | 0.0 | 0.0 | 0.00 | 0.02 | 0.00 | 96 | 1014.3 |
| 20260904100007 | 75 | 78 | 0.0 | 0.0 | 0.00 | 0.02 | 0.00 | 96 | 1014.2 |
| 20260904094602 | 76 | 78 | 0.0 | 0.0 | 0.00 | 0.02 | 0.00 | 96 | 1014.1 |
| 20260904093014 | 76 | 78 | 0.0 | 0.0 | 0.00 | 0.02 | 0.00 | 95 | 1014.0 |
| 20260904091604 | 76 | 78 | 0.0 | 0.0 | 0.00 | 0.02 | 0.00 | 95 | 1014.1 |
| 20260904090014 | 76 | 78 | 0.0 | 0.0 | 0.00 | 0.02 | 0.00 | 96 | 1014.1 |
| 20260904084556 | 75 | 78 | 0.0 | 0.0 | 0.00 | 0.02 | 0.00 | 95 | 1014.0 |
| 20260904083035 | 75 | 78 | 0.0 | 0.0 | 0.00 | 0.02 | 0.00 | 95 | 1014.1 |
| 20260904081606 | 76 | 78 | 0.0 | 0.0 | 0.00 | 0.02 | 0.00 | 95 | 1014.1 |
| 20260904080032 | 76 | 78 | 0.0 | 0.0 | 0.00 | 0.02 | 0.00 | 95 | 1014.0 |
| 20260904074613 | 75 | 78 | 0.0 | 0.0 | 0.00 | 0.02 | 0.00 | 95 | 1013.7 |
| 20260904073039 | 76 | 78 | 0.0 | 0.0 | 0.00 | 0.02 | 0.00 | 95 | 1013.6 |
| 20260904071501 | 76 | 78 | 0.0 | 0.0 | 0.00 | 0.02 | 0.00 | 95 | 1013.6 |
| 20260904070036 | 76 | 78 | 0.0 | 0.0 | 0.00 | 0.02 | 0.00 | 95 | 1013.7 |
| 20260904064611 | 76 | 78 | 0.0 | 0.0 | 0.00 | 0.02 | 0.00 | 94 | 1013.9 |
| 20260904063034 | 76 | 78 | 0.0 | 0.0 | 0.00 | 0.02 | 0.00 | 94 | 1014.1 |
| 20260904061503 | 76 | 78 | 0.0 | 0.0 | 0.00 | 0.02 | 0.00 | 94 | 1014.2 |
| 20260904060057 | 76 | 78 | 0.0 | 2.0 | 0.00 | 0.02 | 0.00 | 94 | 1014.3 |
| 20260904054502 | 76 | 78 | 0.0 | 0.0 | 0.00 | 0.02 | 0.00 | 95 | 1014.5 |
| 20260904053043 | 76 | 78 | 0.0 | 0.0 | 0.00 | 0.02 | 0.00 | 94 | 1014.6 |
| 20260904051506 | 76 | 78 | 0.0 | 0.0 | 0.00 | 0.02 | 0.00 | 94 | 1014.8 |
| 20260904050044 | 76 | 78 | 0.0 | 1.0 | 0.00 | 0.02 | 0.00 | 94 | 1014.8 |
| 20260904044514 | 76 | 78 | 0.0 | 2.0 | 0.00 | 0.02 | 0.00 | 93 | 1014.8 |
| 20260904043049 | 76 | 78 | 0.0 | 0.0 | 0.00 | 0.02 | 0.00 | 93 | 1014.8 |
| 20260904041508 | 76 | 78 | 0.0 | 2.0 | 0.00 | 0.02 | 0.00 | 93 | 1014.9 |
| 20260904040042 | 77 | 78 | 0.0 | 2.0 | 0.00 | 0.02 | 0.00 | 93 | 1014.9 |
| 20260904034512 | 77 | 78 | 0.0 | 0.0 | 0.00 | 0.02 | 0.02 | 93 | 1014.9 |
| 20260904033053 | 77 | 78 | 0.0 | 0.0 | 0.00 | 0.02 | 0.02 | 92 | 1014.8 |
| 20260904031531 | 77 | 78 | 0.0 | 0.0 | 0.00 | 0.02 | 0.02 | 92 | 1014.7 |
| 20260904030103 | 77 | 78 | 0.0 | 2.0 | 0.00 | 0.02 | 0.02 | 91 | 1014.7 |
| 20260904024542 | 78 | 78 | 0.0 | 1.0 | 0.00 | 0.02 | 0.02 | 90 | 1014.7 |
| 20260904023109 | 78 | 78 | 0.0 | 2.0 | 0.00 | 0.02 | 0.02 | 89 | 1014.6 |
| 20260904021533 | 79 | 78 | 0.0 | 2.0 | 0.00 | 0.02 | 0.02 | 88 | 1014.5 |
| 20260904020106 | 79 | 78 | 0.0 | 2.0 | 0.00 | 0.02 | 0.02 | 88 | 1014.4 |
| 20260904014611 | 79 | 101 | 1.0 | 3.0 | 0.00 | 0.02 | 0.02 | 87 | 1014.2 |
| 20260904013122 | 80 | 103 | 0.0 | 2.0 | 0.00 | 0.02 | 0.02 | 86 | 1014.2 |
| 20260904011538 | 80 | 102 | 1.0 | 3.0 | 0.00 | 0.02 | 0.02 | 85 | 1014.4 |
| 20260904010011 | 81 | 101 | 2.0 | 6.0 | 0.00 | 0.02 | 0.02 | 84 | 1014.3 |
| 20260904004551 | 81 | 105 | 3.0 | 6.0 | 0.00 | 0.02 | 0.02 | 83 | 1014.1 |
| 20260904003023 | 81 | 108 | 2.0 | 6.0 | 0.00 | 0.02 | 0.02 | 83 | 1014.0 |
| 20260904001603 | 82 | 117 | 2.0 | 3.0 | 0.00 | 0.02 | 0.02 | 83 | 1013.9 |
| 20260904000016 | 82 | 105 | 0.0 | 2.0 | 0.00 | 0.02 | 0.02 | 83 | 1013.8 |
| 20260903234554 | 83 | 104 | 0.0 | 0.0 | 0.00 | 0.02 | 0.02 | 81 | 1013.7 |
| 20260903233029 | 84 | 104 | 1.0 | 4.0 | 0.00 | 0.02 | 0.02 | 80 | 1013.6 |
| 20260903231541 | 84 | 68 | 0.0 | 3.0 | 0.00 | 0.02 | 0.02 | 78 | 1013.4 |
| 20260903230113 | 85 | 80 | 2.0 | 6.0 | 0.00 | 0.02 | 0.02 | 77 | 1013.1 |